^^
Your Local Weather - Clay, NY Station Historical Data
Daily Summary for January 8, 2017 Units:  Metric    English   Both
« Previous Day
Next Day »
Daily Weekly Monthly Yearly Custom
  High: Low: Average:
Temperature: -7.6 °C -13.7 °C -10 °C
Dew Point: -10.9 °C -17.2 °C -14.3 °C
Humidity: 87% 57% 72%
Wind Speed: 11.3km/h 0km/h 5km/h
Wind Gust: 24.1km/h - -
Wind- - West
Pressure: 1035.4 hPa 1021.2 hPa -
Precipitation: 0 mm    
Historical Graphs
 
 
Tabular Data for January 8, 2017
Time Temperature Dew Point Pressure Wind Wind Speed Wind Gust Humidity Rainfall Rate (Hourly) solar
00:02 -9.4 °C -16 °C 1021.6 hPa WSW 4.8 km/h 9.7 km/h 59% 0 mm 0 W/m2
00:08 -9.6 °C -16.1 °C 1021.6 hPa SW 4.8 km/h 9.7 km/h 59% 0 mm 0 W/m2
00:14 -9.6 °C -16.2 °C 1021.6 hPa SW 4.8 km/h 8 km/h 59% 0 mm 0 W/m2
00:20 -9.7 °C -16 °C 1021.6 hPa SW 6.4 km/h 6.4 km/h 60% 0 mm 0 W/m2
00:26 -9.8 °C -16.1 °C 1021.6 hPa SW 6.4 km/h 6.4 km/h 60% 0 mm 0 W/m2
00:32 -9.8 °C -16.2 °C 1021.6 hPa WSW 6.4 km/h 6.4 km/h 60% 0 mm 0 W/m2
00:38 -9.9 °C -16.1 °C 1021.6 hPa SW 6.4 km/h 12.9 km/h 61% 0 mm 0 W/m2
00:44 -10 °C -16.1 °C 1021.6 hPa West 6.4 km/h 8 km/h 61% 0 mm 0 W/m2
00:50 -10.1 °C -16.2 °C 1021.6 hPa WSW 4.8 km/h 4.8 km/h 61% 0 mm 0 W/m2
00:56 -10.2 °C -16.1 °C 1021.6 hPa West 6.4 km/h 11.3 km/h 62% 0 mm 0 W/m2
01:02 -10.3 °C -16.2 °C 1021.6 hPa West 4.8 km/h 6.4 km/h 62% 0 mm 0 W/m2
01:08 -10.3 °C -16.2 °C 1021.6 hPa West 4.8 km/h 8 km/h 62% 0 mm 0 W/m2
01:14 -10.3 °C -16.2 °C 1021.6 hPa WSW 6.4 km/h 11.3 km/h 62% 0 mm 0 W/m2
01:20 -10.2 °C -15.9 °C 1021.9 hPa West 6.4 km/h 6.4 km/h 63% 0 mm 0 W/m2
01:26 -10.2 °C -15.9 °C 1021.9 hPa WSW 4.8 km/h 8 km/h 63% 0 mm 0 W/m2
01:32 -10.2 °C -15.9 °C 1021.9 hPa WSW 6.4 km/h 6.4 km/h 63% 0 mm 0 W/m2
01:38 -10.2 °C -15.9 °C 1021.9 hPa WSW 4.8 km/h 6.4 km/h 63% 0 mm 0 W/m2
01:44 -10.2 °C -16.1 °C 1021.9 hPa SSW 4.8 km/h 14.5 km/h 62% 0 mm 0 W/m2
01:50 -10.2 °C -16.1 °C 1021.9 hPa WSW 6.4 km/h 8 km/h 62% 0 mm 0 W/m2
01:56 -10.2 °C -16.3 °C 1021.9 hPa SSW 6.4 km/h 11.3 km/h 61% 0 mm 0 W/m2
02:02 -10.2 °C -16.1 °C 1021.9 hPa WSW 6.4 km/h 6.4 km/h 62% 0 mm 0 W/m2
02:08 -10.2 °C -16.1 °C 1021.9 hPa West 4.8 km/h 6.4 km/h 62% 0 mm 0 W/m2
02:14 -10.2 °C -16.1 °C 1021.9 hPa West 4.8 km/h 8 km/h 62% 0 mm 0 W/m2
02:20 -10.2 °C -16.1 °C 1021.9 hPa SW 4.8 km/h 9.7 km/h 62% 0 mm 0 W/m2
02:26 -10.2 °C -16.1 °C 1021.9 hPa WSW 4.8 km/h 9.7 km/h 62% 0 mm 0 W/m2
02:32 -10.2 °C -16.3 °C 1021.9 hPa West 4.8 km/h 6.4 km/h 61% 0 mm 0 W/m2
02:38 -10.2 °C -16.3 °C 1021.9 hPa West 4.8 km/h 6.4 km/h 61% 0 mm 0 W/m2
02:44 -10.2 °C -16.3 °C 1021.9 hPa WSW 4.8 km/h 6.4 km/h 61% 0 mm 0 W/m2
02:50 -10.2 °C -16.3 °C 1021.9 hPa SW 6.4 km/h 9.7 km/h 61% 0 mm 0 W/m2
02:56 -10.2 °C -16.3 °C 1021.9 hPa West 6.4 km/h 9.7 km/h 61% 0 mm 0 W/m2
03:02 -10.2 °C -16.3 °C 1021.9 hPa West 4.8 km/h 4.8 km/h 61% 0 mm 0 W/m2
03:08 -10.2 °C -16.1 °C 1021.9 hPa SW 4.8 km/h 9.7 km/h 62% 0 mm 0 W/m2
03:14 -10.2 °C -16.1 °C 1021.9 hPa WSW 4.8 km/h 6.4 km/h 62% 0 mm 0 W/m2
03:20 -10.3 °C -16.2 °C 1021.9 hPa WNW 4.8 km/h 6.4 km/h 62% 0 mm 0 W/m2
03:26 -10.3 °C -16.4 °C 1021.9 hPa SW 6.4 km/h 6.4 km/h 61% 0 mm 0 W/m2
03:32 -10.3 °C -16.4 °C 1021.9 hPa WSW 6.4 km/h 6.4 km/h 61% 0 mm 0 W/m2
03:38 -10.4 °C -16.7 °C 1021.9 hPa West 6.4 km/h 11.3 km/h 60% 0 mm 0 W/m2
03:44 -10.4 °C -16.7 °C 1021.6 hPa WNW 6.4 km/h 14.5 km/h 60% 0 mm 0 W/m2
03:50 -10.4 °C -16.5 °C 1021.6 hPa WSW 6.4 km/h 12.9 km/h 61% 0 mm 0 W/m2
03:56 -10.4 °C -16.5 °C 1021.6 hPa WSW 4.8 km/h 12.9 km/h 61% 0 mm 0 W/m2
04:04 -10.4 °C -16.5 °C 1021.6 hPa SW 4.8 km/h 8 km/h 61% 0 mm 0 W/m2
04:10 -10.4 °C -16.7 °C 1021.6 hPa West 6.4 km/h 11.3 km/h 60% 0 mm 0 W/m2
04:16 -10.4 °C -16.9 °C 1021.6 hPa WSW 8 km/h 11.3 km/h 59% 0 mm 0 W/m2
04:22 -10.4 °C -16.7 °C 1021.2 hPa West 6.4 km/h 8 km/h 60% 0 mm 0 W/m2
04:28 -10.5 °C -16.8 °C 1021.2 hPa West 4.8 km/h 8 km/h 60% 0 mm 0 W/m2
04:34 -10.4 °C -16.7 °C 1021.2 hPa WSW 6.4 km/h 17.7 km/h 60% 0 mm 0 W/m2
04:40 -10.5 °C -16.8 °C 1021.2 hPa WSW 6.4 km/h 6.4 km/h 60% 0 mm 0 W/m2
04:46 -10.4 °C -16.9 °C 1021.2 hPa SW 8 km/h 9.7 km/h 59% 0 mm 0 W/m2
04:52 -10.5 °C -16.8 °C 1021.2 hPa West 8 km/h 8 km/h 60% 0 mm 0 W/m2
04:58 -10.5 °C -16.8 °C 1021.2 hPa SSW 6.4 km/h 11.3 km/h 60% 0 mm 0 W/m2
05:04 -10.6 °C -17.1 °C 1021.2 hPa WSW 4.8 km/h 6.4 km/h 59% 0 mm 0 W/m2
05:10 -10.6 °C -16.8 °C 1021.2 hPa SW 4.8 km/h 9.7 km/h 60% 0 mm 0 W/m2
05:16 -10.6 °C -17.1 °C 1021.2 hPa WSW 4.8 km/h 9.7 km/h 59% 0 mm 0 W/m2
05:22 -10.6 °C -17.1 °C 1021.2 hPa West 6.4 km/h 6.4 km/h 59% 0 mm 0 W/m2
05:28 -10.6 °C -17.2 °C 1021.2 hPa SSW 6.4 km/h 11.3 km/h 58% 0 mm 0 W/m2
05:34 -10.6 °C -17.2 °C 1021.2 hPa SW 8 km/h 9.7 km/h 58% 0 mm 0 W/m2
05:40 -10.5 °C -17.2 °C 1021.2 hPa West 6.4 km/h 6.4 km/h 58% 0 mm 0 W/m2
05:46 -10.5 °C -17.2 °C 1021.2 hPa SW 6.4 km/h 11.3 km/h 58% 0 mm 0 W/m2
05:52 -10.4 °C -17.1 °C 1021.2 hPa WSW 6.4 km/h 14.5 km/h 58% 0 mm 0 W/m2
05:58 -10.4 °C -17.1 °C 1021.2 hPa SW 4.8 km/h 14.5 km/h 58% 0 mm 0 W/m2
06:04 -10.3 °C -17 °C 1021.2 hPa SW 6.4 km/h 9.7 km/h 58% 0 mm 0 W/m2
06:10 -10.2 °C -16.9 °C 1021.2 hPa West 6.4 km/h 8 km/h 58% 0 mm 0 W/m2
06:16 -10.2 °C -16.9 °C 1021.2 hPa SW 4.8 km/h 8 km/h 58% 0 mm 0 W/m2
06:22 -10.1 °C -16.8 °C 1021.2 hPa West 4.8 km/h 4.8 km/h 58% 0 mm 0 W/m2
06:28 -10.1 °C -16.8 °C 1021.6 hPa SW 4.8 km/h 6.4 km/h 58% 0 mm 0 W/m2
06:34 -10.1 °C -16.8 °C 1021.6 hPa SW 4.8 km/h 4.8 km/h 58% 0 mm 0 W/m2
06:40 -10 °C -16.3 °C 1021.6 hPa SW 4.8 km/h 4.8 km/h 60% 0 mm 0 W/m2
06:46 -9.9 °C -16 °C 1021.6 hPa West 6.4 km/h 11.3 km/h 61% 0 mm 0 W/m2
06:52 -9.8 °C -15.8 °C 1021.6 hPa WSW 6.4 km/h 12.9 km/h 62% 0 mm 0 W/m2
06:58 -9.8 °C -15.5 °C 1021.6 hPa WSW 6.4 km/h 12.9 km/h 63% 0 mm 0 W/m2
07:04 -9.8 °C -15.3 °C 1021.6 hPa WNW 6.4 km/h 9.7 km/h 64% 0 mm 0 W/m2
07:10 -9.7 °C -15.1 °C 1021.6 hPa WNW 6.4 km/h 6.4 km/h 65% 0 mm 0 W/m2
07:16 -9.7 °C -15.1 °C 1021.6 hPa West 4.8 km/h 20.9 km/h 65% 0 mm 0 W/m2
07:22 -9.7 °C -14.8 °C 1021.6 hPa West 4.8 km/h 11.3 km/h 66% 0 mm 0 W/m2
07:28 -9.7 °C -14.8 °C 1021.6 hPa WSW 6.4 km/h 11.3 km/h 66% 0 mm 0 W/m2
07:34 -9.7 °C -14.7 °C 1021.6 hPa WSW 6.4 km/h 8 km/h 67% 0 mm 0 W/m2
07:40 -9.7 °C -14.4 °C 1021.9 hPa West 6.4 km/h 6.4 km/h 68% 0 mm 0 W/m2
07:46 -9.7 °C -14.3 °C 1021.9 hPa WNW 6.4 km/h 9.7 km/h 69% 0 mm 0 W/m2
07:52 -9.7 °C -14.2 °C 1021.9 hPa West 6.4 km/h 6.4 km/h 70% 0 mm 0 W/m2
07:58 -9.8 °C -13.9 °C 1022.2 hPa West 4.8 km/h 6.4 km/h 72% 0 mm 0 W/m2
08:04 -10.1 °C -13.3 °C 1022.2 hPa West 3.2 km/h 9.7 km/h 77% 0 mm 0 W/m2
08:10 -10.3 °C -12.9 °C 1022.2 hPa WSW 3.2 km/h 4.8 km/h 81% 0 mm 5 W/m2
09:34 -9.5 °C -11.7 °C 1022.9 hPa WSW 4.8 km/h 4.8 km/h 84% 0 mm 37 W/m2
09:40 -9.4 °C -11.7 °C 1022.9 hPa WSW 3.2 km/h 3.2 km/h 84% 0 mm 30 W/m2
09:46 -9.4 °C -11.6 °C 1023.2 hPa WSW 4.8 km/h 4.8 km/h 84% 0 mm 23 W/m2
09:52 -9.4 °C -11.6 °C 1023.2 hPa West 3.2 km/h 6.4 km/h 84% 0 mm 18 W/m2
09:58 -9.3 °C -11.6 °C 1023.6 hPa WNW 3.2 km/h 6.4 km/h 84% 0 mm 18 W/m2
10:04 -9.3 °C -11.5 °C 1023.6 hPa WNW 3.2 km/h 4.8 km/h 84% 0 mm 16 W/m2
10:10 -9.2 °C -11.4 °C 1023.6 hPa WNW 3.2 km/h 4.8 km/h 84% 0 mm 37 W/m2
10:16 -9 °C -11.2 °C 1023.6 hPa WNW 4.8 km/h 4.8 km/h 84% 0 mm 123 W/m2
10:22 -8.7 °C -11.1 °C 1023.6 hPa NW 4.8 km/h 4.8 km/h 83% 0 mm 88 W/m2
10:28 -8.6 °C -11.1 °C 1023.9 hPa WNW 4.8 km/h 8 km/h 82% 0 mm 62 W/m2
10:34 -8.6 °C -11.1 °C 1023.9 hPa WNW 4.8 km/h 8 km/h 82% 0 mm 42 W/m2
10:40 -8.4 °C -10.9 °C 1023.9 hPa NW 4.8 km/h 4.8 km/h 82% 0 mm 49 W/m2
10:46 -8.4 °C -11.4 °C 1023.9 hPa WNW 4.8 km/h 9.7 km/h 79% 0 mm 46 W/m2
10:52 -8.4 °C -11.6 °C 1023.9 hPa NW 8 km/h 8 km/h 78% 0 mm 84 W/m2
10:58 -8.1 °C -11.6 °C 1023.9 hPa NW 6.4 km/h 9.7 km/h 76% 0 mm 169 W/m2
11:04 -7.6 °C -11.4 °C 1023.9 hPa West 6.4 km/h 14.5 km/h 74% 0 mm 176 W/m2
11:10 -7.6 °C -11.6 °C 1023.9 hPa West 6.4 km/h 8 km/h 73% 0 mm 144 W/m2
11:16 -8.1 °C -12.1 °C 1023.9 hPa West 6.4 km/h 16.1 km/h 73% 0 mm 139 W/m2
11:22 -8.3 °C -12.3 °C 1023.9 hPa NNW 8 km/h 9.7 km/h 73% 0 mm 169 W/m2
11:28 -8.2 °C -12.4 °C 1023.9 hPa WNW 6.4 km/h 9.7 km/h 72% 0 mm 146 W/m2
11:34 -8.2 °C -12.6 °C 1023.9 hPa WNW 6.4 km/h 12.9 km/h 71% 0 mm 211 W/m2
11:40 -8.2 °C -12.8 °C 1023.9 hPa WNW 8 km/h 12.9 km/h 69% 0 mm 118 W/m2
11:46 -8.3 °C -12.9 °C 1023.9 hPa NW 8 km/h 12.9 km/h 69% 0 mm 120 W/m2
11:52 -8.2 °C -12.7 °C 1023.9 hPa WNW 6.4 km/h 12.9 km/h 70% 0 mm 113 W/m2
11:58 -8.2 °C -12.5 °C 1023.9 hPa WNW 8 km/h 12.9 km/h 71% 0 mm 125 W/m2
12:04 -8.1 °C -12.4 °C 1023.9 hPa West 8 km/h 8 km/h 71% 0 mm 127 W/m2
12:10 -8.1 °C -12.6 °C 1023.9 hPa West 6.4 km/h 9.7 km/h 70% 0 mm 128 W/m2
12:16 -7.9 °C -13.2 °C 1023.9 hPa NNW 8 km/h 9.7 km/h 66% 0 mm 135 W/m2
12:22 -7.9 °C -13.5 °C 1024.3 hPa NW 8 km/h 8 km/h 64% 0 mm 118 W/m2
12:28 -7.8 °C -14 °C 1024.3 hPa NW 8 km/h 12.9 km/h 61% 0 mm 121 W/m2
12:34 -7.7 °C -14.5 °C 1024.6 hPa NNW 11.3 km/h 11.3 km/h 58% 0 mm 135 W/m2
12:40 -7.7 °C -14.7 °C 1024.6 hPa West 11.3 km/h 14.5 km/h 57% 0 mm 174 W/m2
12:46 -7.9 °C -14.3 °C 1024.6 hPa NW 9.7 km/h 14.5 km/h 60% 0 mm 281 W/m2
12:52 -7.9 °C -14.3 °C 1024.6 hPa NW 9.7 km/h 12.9 km/h 60% 0 mm 155 W/m2
12:58 -7.8 °C -14.3 °C 1024.6 hPa NNW 8 km/h 17.7 km/h 60% 0 mm 167 W/m2
13:04 -7.7 °C -14.1 °C 1024.6 hPa NW 6.4 km/h 9.7 km/h 60% 0 mm 162 W/m2
13:10 -8 °C -13.8 °C 1024.9 hPa WNW 9.7 km/h 9.7 km/h 63% 0 mm 221 W/m2
13:16 -7.7 °C -13.2 °C 1024.9 hPa West 8 km/h 12.9 km/h 65% 0 mm 357 W/m2
13:22 -7.7 °C -13.5 °C 1024.9 hPa West 8 km/h 19.3 km/h 63% 0 mm 181 W/m2
13:28 -8.2 °C -12.4 °C 1024.9 hPa NNW 11.3 km/h 19.3 km/h 72% 0 mm 151 W/m2
13:34 -8.4 °C -12.2 °C 1025.3 hPa WNW 9.7 km/h 17.7 km/h 74% 0 mm 102 W/m2
13:42 -8.1 °C -12.6 °C 1025.3 hPa NW 8 km/h 12.9 km/h 70% 0 mm 171 W/m2
13:48 -8.2 °C -12.8 °C 1025.3 hPa WNW 8 km/h 12.9 km/h 69% 0 mm 93 W/m2
13:54 -8.1 °C -13.2 °C 1025.3 hPa NW 8 km/h 8 km/h 67% 0 mm 93 W/m2
14:00 -8.1 °C -13.5 °C 1025.6 hPa NNW 8 km/h 11.3 km/h 65% 0 mm 70 W/m2
14:06 -8.2 °C -13.4 °C 1025.6 hPa NW 9.7 km/h 11.3 km/h 66% 0 mm 176 W/m2
14:12 -8.2 °C -13.2 °C 1026 hPa WNW 11.3 km/h 16.1 km/h 67% 0 mm 260 W/m2
14:18 -8 °C -13.1 °C 1026.3 hPa WNW 9.7 km/h 16.1 km/h 67% 0 mm 193 W/m2
14:24 -8 °C -12.9 °C 1026.3 hPa WNW 9.7 km/h 9.7 km/h 68% 0 mm 169 W/m2
14:30 -8.3 °C -12.2 °C 1026.3 hPa WNW 9.7 km/h 9.7 km/h 74% 0 mm 148 W/m2
14:36 -8.4 °C -11.7 °C 1026.6 hPa NW 8 km/h 9.7 km/h 77% 0 mm 127 W/m2
14:42 -8.6 °C -11.7 °C 1026.6 hPa NW 6.4 km/h 8 km/h 78% 0 mm 88 W/m2
14:48 -8.9 °C -11.7 °C 1026.6 hPa WNW 9.7 km/h 14.5 km/h 80% 0 mm 105 W/m2
14:54 -8.9 °C -11.7 °C 1027.3 hPa WNW 8 km/h 9.7 km/h 80% 0 mm 98 W/m2
15:00 -8.8 °C -11.7 °C 1027.3 hPa NNW 6.4 km/h 6.4 km/h 80% 0 mm 76 W/m2
15:06 -8.8 °C -11.8 °C 1027.3 hPa NNW 6.4 km/h 8 km/h 79% 0 mm 70 W/m2
15:12 -8.9 °C -11.9 °C 1027.7 hPa WNW 8 km/h 8 km/h 79% 0 mm 95 W/m2
15:18 -9 °C -12 °C 1027.7 hPa NW 8 km/h 8 km/h 79% 0 mm 49 W/m2
15:24 -9.1 °C -11.8 °C 1027.7 hPa NNW 6.4 km/h 17.7 km/h 81% 0 mm 67 W/m2
15:30 -9.2 °C -11.6 °C 1028 hPa WNW 8 km/h 8 km/h 83% 0 mm 69 W/m2
15:36 -9.3 °C -11.5 °C 1028.3 hPa WNW 8 km/h 8 km/h 84% 0 mm 84 W/m2
15:42 -9.2 °C -11.6 °C 1028.3 hPa NNW 6.4 km/h 9.7 km/h 83% 0 mm 67 W/m2
15:48 -9.2 °C -11.7 °C 1028.3 hPa WNW 6.4 km/h 9.7 km/h 82% 0 mm 44 W/m2
15:54 -9.2 °C -12 °C 1028.7 hPa NW 4.8 km/h 9.7 km/h 80% 0 mm 35 W/m2
16:00 -9.1 °C -11.9 °C 1029 hPa NW 6.4 km/h 8 km/h 80% 0 mm 26 W/m2
16:06 -9.2 °C -12.2 °C 1029 hPa NW 6.4 km/h 9.7 km/h 79% 0 mm 16 W/m2
16:12 -9.2 °C -12.3 °C 1029.3 hPa NW 4.8 km/h 8 km/h 78% 0 mm 25 W/m2
16:18 -9.2 °C -12.3 °C 1029.3 hPa NW 4.8 km/h 9.7 km/h 78% 0 mm 18 W/m2
16:24 -9.2 °C -12.8 °C 1029.3 hPa NW 6.4 km/h 24.1 km/h 75% 0 mm 9 W/m2
16:30 -9.2 °C -13.1 °C 1029.3 hPa NW 6.4 km/h 6.4 km/h 73% 0 mm 7 W/m2
16:36 -9.2 °C -13.2 °C 1029.7 hPa WNW 6.4 km/h 14.5 km/h 73% 0 mm 5 W/m2
16:42 -9.5 °C -12.6 °C 1029.7 hPa North 6.4 km/h 11.3 km/h 78% 0 mm 0 W/m2
16:48 -9.7 °C -12.5 °C 1030 hPa NW 6.4 km/h 11.3 km/h 80% 0 mm 0 W/m2
16:54 -9.9 °C -12.7 °C 1030 hPa NNW 4.8 km/h 6.4 km/h 80% 0 mm 0 W/m2
17:00 -9.9 °C -13.1 °C 1030.4 hPa NNW 3.2 km/h 3.2 km/h 78% 0 mm 0 W/m2
17:06 -9.9 °C -13.7 °C 1030.4 hPa WSW 4.8 km/h 4.8 km/h 74% 0 mm 0 W/m2
17:12 -9.8 °C -13.9 °C 1030.4 hPa NW 6.4 km/h 11.3 km/h 72% 0 mm 0 W/m2
17:18 -9.8 °C -13.9 °C 1030.4 hPa WNW 6.4 km/h 11.3 km/h 72% 0 mm 0 W/m2
17:24 -9.8 °C -13.4 °C 1030.7 hPa North 6.4 km/h 9.7 km/h 75% 0 mm 0 W/m2
17:30 -10 °C -12.9 °C 1031 hPa NNW 8 km/h 8 km/h 79% 0 mm 0 W/m2
17:36 -10.1 °C -12.9 °C 1031 hPa NNW 8 km/h 8 km/h 80% 0 mm 0 W/m2
17:42 -10.2 °C -12.8 °C 1031 hPa NW 8 km/h 11.3 km/h 81% 0 mm 0 W/m2
17:48 -10.3 °C -12.9 °C 1031 hPa North 8 km/h 11.3 km/h 81% 0 mm 0 W/m2
17:54 -10.4 °C -13 °C 1031 hPa NW 6.4 km/h 9.7 km/h 81% 0 mm 0 W/m2
18:00 -10.4 °C -13.2 °C 1031 hPa NNW 4.8 km/h 4.8 km/h 80% 0 mm 0 W/m2
18:06 -10.6 °C -13.6 °C 1031.4 hPa NW 3.2 km/h 4.8 km/h 79% 0 mm 0 W/m2
18:12 -10.5 °C -13.8 °C 1031.4 hPa NW 6.4 km/h 9.7 km/h 77% 0 mm 0 W/m2
18:18 -10.4 °C -14.2 °C 1031.4 hPa NNW 8 km/h 12.9 km/h 74% 0 mm 0 W/m2
18:24 -10.5 °C -14.4 °C 1031.7 hPa NW 4.8 km/h 9.7 km/h 73% 0 mm 0 W/m2
18:30 -10.6 °C -14.5 °C 1031.7 hPa NNW 3.2 km/h 3.2 km/h 73% 0 mm 0 W/m2
18:36 -10.7 °C -14.6 °C 1032.1 hPa NNW 1.6 km/h 3.2 km/h 73% 0 mm 0 W/m2
18:42 -10.8 °C -14.5 °C 1032.1 hPa NNW 1.6 km/h 1.6 km/h 74% 0 mm 0 W/m2
18:48 -10.9 °C -14.6 °C 1032.1 hPa Calm   1.6 km/h 74% 0 mm 0 W/m2
18:54 -10.8 °C -14.6 °C 1032.1 hPa Calm   4.8 km/h 74% 0 mm 0 W/m2
19:00 -10.8 °C -14.6 °C 1032.4 hPa Calm   3.2 km/h 74% 0 mm 0 W/m2
19:06 -10.8 °C -14.3 °C 1032.4 hPa Calm   3.2 km/h 75% 0 mm 0 W/m2
19:12 -10.6 °C -14.3 °C 1032.4 hPa NNW 1.6 km/h 9.7 km/h 74% 0 mm 0 W/m2
19:18 -10.6 °C -14.4 °C 1032.7 hPa NNW 1.6 km/h 9.7 km/h 73% 0 mm 0 W/m2
19:24 -10.5 °C -14.2 °C 1032.7 hPa Calm   1.6 km/h 74% 0 mm 0 W/m2
19:30 -10.4 °C -14.1 °C 1033.1 hPa NW 3.2 km/h 3.2 km/h 74% 0 mm 0 W/m2
19:36 -10.3 °C -14.1 °C 1033.1 hPa NW 3.2 km/h 4.8 km/h 74% 0 mm 0 W/m2
19:42 -10.4 °C -14.1 °C 1033.1 hPa NW 3.2 km/h 3.2 km/h 74% 0 mm 0 W/m2
19:48 -10.5 °C -13.9 °C 1033.1 hPa NNE 3.2 km/h 4.8 km/h 76% 0 mm 0 W/m2
19:54 -10.7 °C -13.8 °C 1033.4 hPa NNE 1.6 km/h 3.2 km/h 78% 0 mm 0 W/m2
20:00 -10.8 °C -13.6 °C 1033.4 hPa NE 1.6 km/h 1.6 km/h 80% 0 mm 0 W/m2
20:06 -11.1 °C -13.7 °C 1033.4 hPa NE 1.6 km/h 1.6 km/h 81% 0 mm 0 W/m2
20:12 -11.1 °C -13.6 °C 1033.4 hPa NE 1.6 km/h 1.6 km/h 82% 0 mm 0 W/m2
20:18 -11.2 °C -13.5 °C 1033.4 hPa Calm   1.6 km/h 83% 0 mm 0 W/m2
20:24 -11.3 °C -13.6 °C 1033.7 hPa NNW 1.6 km/h 4.8 km/h 83% 0 mm 0 W/m2
20:30 -11.4 °C -13.7 °C 1033.7 hPa NNW 3.2 km/h 3.2 km/h 83% 0 mm 0 W/m2
20:36 -11.4 °C -13.8 °C 1034.1 hPa NNW 1.6 km/h 3.2 km/h 83% 0 mm 0 W/m2
20:42 -11.5 °C -13.8 °C 1034.1 hPa NNW 1.6 km/h 4.8 km/h 83% 0 mm 0 W/m2
20:48 -11.6 °C -13.7 °C 1034.1 hPa NNW 1.6 km/h 4.8 km/h 84% 0 mm 0 W/m2
20:54 -11.6 °C -13.9 °C 1034.4 hPa NNW 1.6 km/h 1.6 km/h 83% 0 mm 0 W/m2
21:00 -11.7 °C -14 °C 1034.8 hPa NNW 1.6 km/h 1.6 km/h 83% 0 mm 0 W/m2
21:06 -11.7 °C -13.9 °C 1034.8 hPa Calm   1.6 km/h 84% 0 mm 0 W/m2
21:12 -11.7 °C -13.9 °C 1034.8 hPa Calm     84% 0 mm 0 W/m2
21:18 -11.7 °C -13.9 °C 1034.8 hPa Calm   1.6 km/h 84% 0 mm 0 W/m2
21:24 -11.8 °C -13.9 °C 1034.8 hPa Calm   1.6 km/h 84% 0 mm 0 W/m2
21:30 -11.8 °C -14 °C 1034.8 hPa Calm   1.6 km/h 84% 0 mm 0 W/m2
21:36 -11.8 °C -14 °C 1034.8 hPa Calm   1.6 km/h 84% 0 mm 0 W/m2
21:42 -11.9 °C -14.1 °C 1034.8 hPa Calm     84% 0 mm 0 W/m2
21:48 -11.9 °C -14.1 °C 1034.8 hPa Calm     84% 0 mm 0 W/m2
21:54 -11.9 °C -14.1 °C 1035.1 hPa Calm     84% 0 mm 0 W/m2
22:00 -11.9 °C -14.1 °C 1035.1 hPa Calm     84% 0 mm 0 W/m2
22:06 -11.9 °C -14.1 °C 1035.1 hPa Calm     84% 0 mm 0 W/m2
22:12 -12 °C -14.2 °C 1035.1 hPa Calm     84% 0 mm 0 W/m2
22:18 -12.1 °C -14.3 °C 1035.1 hPa Calm     84% 0 mm 0 W/m2
22:24 -12.2 °C -14.3 °C 1035.1 hPa Calm     84% 0 mm 0 W/m2
22:30 -12.2 °C -14.4 °C 1035.1 hPa Calm     84% 0 mm 0 W/m2
22:36 -12.3 °C -14.5 °C 1035.1 hPa Calm     84% 0 mm 0 W/m2
22:42 -12.7 °C -14.8 °C 1035.1 hPa Calm     84% 0 mm 0 W/m2
22:48 -12.9 °C -15 °C 1035.1 hPa Calm     84% 0 mm 0 W/m2
22:54 -13.1 °C -15.2 °C 1035.1 hPa Calm     84% 0 mm 0 W/m2
23:00 -13.4 °C -15.6 °C 1035.1 hPa Calm     84% 0 mm 0 W/m2
23:06 -13.6 °C -15.7 °C 1035.1 hPa Calm     84% 0 mm 0 W/m2
23:12 -13.7 °C -15.8 °C 1035.4 hPa Calm     84% 0 mm 0 W/m2
23:18 -13.5 °C -15.5 °C 1035.4 hPa Calm     85% 0 mm 0 W/m2
23:24 -13.2 °C -15.1 °C 1035.4 hPa Calm     86% 0 mm 0 W/m2
23:30 -13 °C -14.8 °C 1035.1 hPa Calm     86% 0 mm 0 W/m2
23:36 -12.7 °C -14.4 °C 1035.1 hPa Calm     87% 0 mm 0 W/m2
23:42 -12.5 °C -14.2 °C 1035.1 hPa Calm     87% 0 mm 0 W/m2
23:48 -12.4 °C -14.2 °C 1035.4 hPa Calm     86% 0 mm 0 W/m2
23:54 -12.3 °C -14.1 °C 1035.4 hPa Calm     86% 0 mm 0 W/m2
Country Meadow, Clay, NY, USA
Compliments of Weather Underground - 2 mb